Regional Weather Roundup
Issued by NWS

Home | Current Version | Previous Version | Graphics & Text | Print | Product List | Glossary On
Versions: 1 2 3 4 5 6 7 8 9 10 11 12 13 14 15 16 17 18 19 20 21 22 23 24 25 26 27 28 29 30 31 32 33 34 35 36 37 38 39 40 41 42 43 44 45 46 47 48 49 50
734
ASUS45 KTFX 201210
RWRMT
MONTANA REGIONAL WEATHER ROUNDUP
NATIONAL WEATHER SERVICE GREAT FALLS MT
500 AM MST SAT JAN 20 2018

NOTE: "FAIR" INDICATES FEW OR NO CLOUDS BELOW 12000 FEET WITH NO
SIGNIFICANT WEATHER AND/OR OBSTRUCTIONS TO VISIBILITY.

MTZ001>007-043-201300-
WEST OF THE DIVIDE

CITY           SKY/WX    TMP DP  RH WIND       PRES   REMARKS
KALISPELL      CLOUDY    33  27  78 S9        29.92R WCI  25
MISSOULA       CLOUDY    30  23  75 SE6       29.96S WCI  24
BUTTE          CLOUDY     7   3  84 CALM      29.91S
MULLAN PASS    FLURRIES  22  20  92 VRB7      29.84S WCI  13
ANACONDA         N/A     23  14  68 W6        29.91F WCI  16
DEER LODGE       N/A     19  16  86 CALM      29.94S
EUREKA           N/A     34  27  75 MISG      29.89F
HAMILTON         N/A     28  21  74 CALM      29.97R
RONAN            N/A     30  27  86 S6        29.95S WCI  24
$$

MTZ008-052>055-201300-
SOUTHWEST MONTANA

CITY           SKY/WX    TMP DP  RH WIND       PRES   REMARKS
BOZEMAN        FAIR      10   8  92 SE5       29.95R
DILLON         FAIR       8   7  95 S7        29.92R WCI  -3
ENNIS          CLOUDY    14   9  79 E6        29.96S WCI   5
W YELLOWSTONE  CLOUDY    18  14  86 CALM      29.86R
THREE FORKS      N/A     21  18  88 CALM      29.94R
$$

MTZ009-010-012-014-046-048-049-054-201300-
EAST SLOPES AND CENTRAL MONTANA

CITY           SKY/WX    TMP DP  RH WIND       PRES   REMARKS
CUT BANK       FAIR      30  18  60 W23       29.75F WCI  17
GREAT FALLS    FAIR      27  17  66 SW15      29.84R WCI  15
MALMSTROM AFB  FAIR      26  19  77 SW15      29.85R WCI  13
HELENA         FAIR      29  17  61 SW3       29.91S
AUGUSTA        FAIR      27  16  63 W14       29.81R WCI  15
BOWMANS CRNR   FAIR      22  16  78 SW12      29.83R WCI  11
CHOTEAU          N/A     28  14  54 SW12G18   29.82R WCI  18
FAIRFIELD      FAIR      28  15  59 SW9       29.81R WCI  19
POWER          FAIR      21  14  76 SW13      29.81R WCI   8
RAYNESFORD     FAIR      29  16  57 SW14G21   29.83R WCI  18
ULM            FAIR      25  18  76 S7        29.86R WCI  17
WHITE SULPHUR    N/A     19  10  68 S6        29.87R WCI  11
$$

MTZ011-013-016-021-045-047-050-051-201300-
NORTH CENTRAL MONTANA

CITY           SKY/WX    TMP DP  RH WIND       PRES   REMARKS
HAVRE          FAIR      24  18  77 SW18      29.82R WCI  10
LEWISTOWN      FAIR      24  16  71 W17       29.83R WCI  11
N BAR RANCH    FAIR      28  10  47 W12       29.83S WCI  18
CHINOOK          N/A     23  18  80 W8        29.82R WCI  14
DENTON         FAIR      23  16  73 MISG      29.81R
GEYSER         FAIR      27  16  62 CALM      29.84R
GRASS RANGE      N/A    N/A N/A N/A W15         N/A
STANFORD       FAIR      26  15  61 SW8       29.83R WCI  18
WINIFRED       FAIR      28  18  67 W13       29.82R WCI  17
$$

MTZ017>020-022>027-061-062-201300-
NORTHEAST MONTANA

CITY           SKY/WX    TMP DP  RH WIND       PRES   REMARKS
GLASGOW        FAIR      20  14  77 W7        29.79R WCI  11
GLENDIVE       FAIR      29  23  78 W10       29.83R WCI  20
JORDAN           N/A     21  15  78 NW7       29.82R WCI  12
MALTA          CLEAR     12  10  92 W13       29.81R WCI  -3
SIDNEY         FAIR      23  21  92 SW8       29.79S WCI  14
WOLF POINT     FAIR      21  14  74 NE3       29.80R
PLENTYWOOD       N/A     21  18  86 CALM      29.73S
POPLAR           N/A     18  14  86 SW7       29.79S WCI   8
$$

MTZ028>42-056>058-201300-
SOUTHCENTRAL AND SOUTHEAST MONTANA

CITY           SKY/WX    TMP DP  RH WIND       PRES   REMARKS
BAKER          CLOUDY    31  28  89 W12       29.83R WCI  22
BILLINGS       FAIR      31  21  66 SW9       29.86F WCI  23
LIVINGSTON     FAIR      21  15  78 NW8       29.90S WCI  11
MILES CITY     FAIR      30  27  88 SW6       29.85R WCI  24
BIG TIMBER     CLEAR     25  18  74 SW29G36   29.86F WCI   8
FORSYTH          N/A     32  25  74 SW3       29.86R
HARLOWTON      MOCLDY    26  16  65 W24G35    29.84S WCI  11
LAUREL           N/A     30  21  69 VRB5      29.88S
ROUNDUP          N/A     26  13  58 S7        29.79R WCI  18
$$

REGIONAL REPORTS...DAKOTAS

CITY           SKY/WX    TMP DP  RH WIND       PRES   REMARKS
WILLISTON      FAIR      29  21  72 W9        29.76R WCI  20
MINOT          FAIR      31  24  75 SW8       29.71S WCI  23
DICKINSON      FAIR      31  29  92 SW8       29.77S WCI  23
BEACH          FAIR      32  28  86 W13       29.84R WCI  22
CROSBY         FAIR      21  18  86 SW13      29.72F WCI   9
TIOGA          FAIR      28  27  93 W14       29.73S WCI  17
WATFORD CITY   FAIR      28  23  80 CALM      29.77R
BISMARCK       CLOUDY    35  31  85 W6        29.80R WCI  30
GRAND FORKS    MOCLDY    28  25  88 W5        29.74R
FARGO          CLOUDY    28  25  88 S8        29.77R WCI  20
BUFFALO SD       N/A     34  30  85 W15       29.77R WCI  24
RAPID CITY     LGT RAIN  34  32  92 N18       29.84R WCI  23
$$

REGIONAL REPORTS...WYOMING/IDAHO/WASHINGTON

CITY           SKY/WX    TMP DP  RH WIND       PRES   REMARKS
GILLETTE       LGT SNOW  30  28  92 N12       29.86R FOG     WCI  20
SHERIDAN       CLOUDY    31  25  78 W6        29.87S WCI  25
BUFFALO WY     FLURRIES  29  24  82 N6        29.87R WCI  23
CODY           FAIR      26  24  92 SW3       29.85F
YELLOWSTONE LA   N/A     16  14  92 CALM      29.83S
IDAHO FALLS    CLOUDY    28  25  88 SW7       29.93S WCI  21
SALMON         CLOUDY    24  20  84 CALM      30.01R
BOISE          CLOUDY    31  25  78 S6        30.03R WCI  25
SPOKANE        CLOUDY    33  31  92 S9        29.94R WCI  25
$$

REGIONAL REPORTS...ALBERTA

CITY           SKY/WX    TMP DP  RH WIND       PRES   REMARKS
CALGARY        PTCLDY    32  10  40 W12G20    29.66S WCI  23
CARDSTON         N/A     32  18  55 W12G18      N/A  WCI  23
EDMONTON       CLOUDY    16  10  79 CALM      29.68  VSB 1/8
FORT MCMURRAY  FLURRIES  18  14  86 W6        29.71R WCI   9
HIGH LEVEL     CLOUDY    16  14  93 N9        29.74R WCI   4
LETHBRIDGE     CLEAR     32  19  59 W16G24    29.73S WCI  21
LLOYDMINSTER   MOCLDY    21  18  86 W9        29.64R WCI  11
MEDICINE HAT   CLEAR     27  19  74 S7        29.73S WCI  19
MILK RIVER       N/A     21  16  79 W9          N/A  WCI  11
PEACE RIVER    FLURRIES  16  12  86 CALM      29.70R
PINCHER CREEK  CLOUDY    30  19  64 W24G32    29.74F WCI  16
WATERTON GATE    N/A     30  19  64 SW20G31     N/A  WCI  18
$$

REGIONAL REPORTS...SASKATCHEWAN

CITY           SKY/WX    TMP DP  RH WIND       PRES   REMARKS
CORONACH         N/A     21  18  86 W15         N/A  WCI   8
CYPRESS HILLS    N/A     27  12  54 NW9         N/A  WCI  17
ESTEVAN        PTCLDY    16  12  86 SW9       29.70S WCI   4
MOOSE JAW        N/A     25  19  80 W15         N/A  WCI  12
PRINCE ALBERT  LGT SNOW  21  18  86 E7        29.61R WCI  13
REGINA         MOCLDY    21  18  86 W9        29.67R WCI  11
ROCKGLEN         N/A     16  12  86 W14         N/A  WCI   1
SASKATOON      MOCLDY    25  21  86 SW7       29.64R WCI  17
SWIFT CURRENT  CLEAR     27  19  74 W21G28    29.67R WCI  13
VAL MARIE        N/A      9   5  85 W5          N/A
$$




USA.gov is the U.S. government's official web portal to all federal, state and local government web resources and services.